Portada
METAR-TAF:

METAR-TAF

Aeroports :

Pittsburg, Kansas, Estats Units d'Amèrica

latitud: 37-26-58N, longitud: 094-43-52W, altitud: 290 m

Observació

L'informe es va fer fa 9 minuts, a les 19:15 UTC
Vent 3 kt del Est
Temperatura 25°C
Humitat 79%
Pressió 1016 hPa
Visibilitat: 16.1 km
Núvols disperses a una alçada de 4800 ft

METAR: KPTS 211915Z AUTO 08003KT 10SM SCT048 25/21 A3000 RMK AO2 T02470214

Hora: 14:24 (19:24 UTC)


TAF: manca

Observacions i pronòstics meteorològics de més de 4000 aeroports (METAR i TAF).

Les estacions disponibles són els punts grocs i vermells al mapa.

Posi el ratolí al punt desitjat per veure el nom de l'estació.

Feu clic per veure les observacions i els pronòstics meteorològics.

Per canviar el mapa: feu clic els botons verds amb una creu de color negre per apropar; al botó verd amb un guió per allunyar la imatge; o en les fletxes verdes per a mapes adjacents.


METAR-TAF: